Mankato, MN

11:29 AM CST on November 22, 2019 (GMT -0600)
Mankato Regional

Weather History for KMKT - September, 2019

Change the Weather History Date:

Sunday, September 8, 2019

  Actual Average Record
Temperature  
Mean Temperature 58 °F -  
Max Temperature 60 °F 73 °F 91 °F (2002)
Min Temperature 55 °F 54 °F 42 °F (2010)
Degree Days  
Heating Degree Days 8    
Growing Degree Days 8 (Base 50)    
Moisture  
Dew Point 56 °F    
Average Humidity 95    
Maximum Humidity 100    
Minimum Humidity 88    
Precipitation  
Precipitation 0.21 in - - ()
Sea Level Pressure  
Sea Level Pressure 30.10 in    
Wind  
Wind Speed 8 mph ()    
Max Wind Speed 13 mph    
Max Gust Speed -    
Visibility 9.6 miles    
Events Rain    
Averages and records for this station are not official NWS values.
T = Trace of Precipitation, MM = Missing Value Source: Averaged Metar Reports

Daily Weather History Graph

Daily Weather History Graph

Search for Another Location

Airport or City:

Astronomy

Sep. 08, 2019 Rise Set
Actual Time 6:46 AM CDT 7:39 PM CDT
Civil Twilight 6:17 AM CDT 8:08 PM CDT
Nautical Twilight 5:41 AM CDT 8:43 PM CDT
Astronomical Twilight 5:05 AM CDT 9:20 PM CDT
Moon 4:59 PM CDT (9/8) 1:15 AM CDT (9/8)
Length of Visible Light 13h 51m
Length of Day
12h 52m
Waxing Gibbous, 75% of the Moon is Illuminated
Sep 8
Waxing Gibbous
Sep 13
Full
Sep 21
Last Quarter
Sep 28
New
Oct 5
First Quarter

Hourly Weather History & Observations

Time (CDT) Temp. Dew Point Humidity Pressure Visibility Wind Dir Wind Speed Gust Speed Precip Events Conditions
1:56 AM 57.0 °F 57.0 °F 100% 30.11 in 10.0 mi ENE 8.1 mph - 0.02 in Rain Light Rain
2:42 AM 57.2 °F 57.2 °F 100% 30.10 in 10.0 mi East 4.6 mph - 0.00 in Rain Light Rain
2:51 AM 57.2 °F 57.2 °F 100% 30.10 in 9.0 mi East 5.8 mph - 0.01 in Rain Light Rain
2:56 AM 57.0 °F 57.0 °F 100% 30.11 in 6.0 mi East 5.8 mph - 0.01 in Rain Light Rain
3:30 AM 57.2 °F 57.2 °F 100% 30.08 in 10.0 mi ENE 6.9 mph - 0.03 in Rain Light Rain
3:56 AM 57.0 °F 57.0 °F 100% 30.09 in 10.0 mi East 5.8 mph - 0.03 in   Overcast
4:20 AM 57.2 °F 55.4 °F 94% 30.07 in 10.0 mi East 9.2 mph - N/A   Overcast
4:56 AM 55.9 °F 55.9 °F 100% 30.06 in 10.0 mi East 10.4 mph - N/A   Overcast
5:56 AM 55.9 °F 55.0 °F 97% 30.08 in 10.0 mi ENE 9.2 mph - 0.00 in   Overcast
6:56 AM 55.9 °F 55.0 °F 97% 30.10 in 6.0 mi ENE 8.1 mph - 0.01 in Rain Light Rain
7:56 AM 55.0 °F 54.0 °F 96% 30.11 in 9.0 mi ENE 10.4 mph - 0.02 in Rain Rain
8:47 AM 55.4 °F 55.4 °F 100% 30.12 in 10.0 mi ENE 6.9 mph - 0.03 in Rain Rain
8:56 AM 55.0 °F 55.0 °F 100% 30.12 in 10.0 mi ENE 9.2 mph - 0.03 in Rain Light Rain
9:56 AM 55.0 °F 55.0 °F 100% 30.12 in 8.0 mi East 9.2 mph - 0.05 in Rain Light Rain
10:05 AM 55.4 °F 55.4 °F 100% 30.11 in 10.0 mi East 11.5 mph - 0.01 in Rain Light Rain
10:56 AM 55.9 °F 55.0 °F 97% 30.13 in 10.0 mi East 8.1 mph - 0.02 in Rain Light Rain
11:56 AM 57.0 °F 55.9 °F 96% 30.12 in 10.0 mi East 8.1 mph - 0.01 in Rain Light Rain
12:29 PM 57.2 °F 55.4 °F 94% 30.10 in 10.0 mi East 10.4 mph - 0.01 in Rain Light Rain
12:52 PM 57.2 °F 55.4 °F 94% 30.10 in 10.0 mi East 11.5 mph - 0.01 in   Overcast
12:56 PM 57.9 °F 55.9 °F 93% 30.11 in 10.0 mi East 12.7 mph - 0.01 in   Overcast
1:22 PM 57.2 °F 55.4 °F 94% 30.09 in 10.0 mi East 12.7 mph - N/A   Overcast
1:56 PM 57.9 °F 55.9 °F 93% 30.10 in 10.0 mi East 12.7 mph - N/A   Overcast
2:30 PM 59.0 °F 55.4 °F 88% 30.09 in 10.0 mi East 12.7 mph - 0.00 in   Overcast
2:56 PM 59.0 °F 55.9 °F 90% 30.10 in 10.0 mi East 11.5 mph - 0.00 in   Overcast
3:22 PM 59.0 °F 57.2 °F 94% 30.09 in 10.0 mi East 10.4 mph - 0.00 in Rain Light Rain
3:56 PM 59.0 °F 57.0 °F 93% 30.11 in 10.0 mi East 9.2 mph - 0.00 in   Overcast
4:56 PM 60.1 °F 57.0 °F 90% 30.09 in 10.0 mi East 10.4 mph - N/A   Overcast
5:56 PM 60.1 °F 57.0 °F 90% 30.10 in 10.0 mi East 10.4 mph - N/A   Overcast
6:56 PM 59.0 °F 55.9 °F 90% 30.10 in 10.0 mi East 10.4 mph - N/A   Overcast
7:56 PM 59.0 °F 55.9 °F 90% 30.10 in 10.0 mi East 9.2 mph - N/A   Overcast
8:56 PM 59.0 °F 55.9 °F 90% 30.10 in 10.0 mi ESE 12.7 mph - N/A   Overcast
9:56 PM 59.0 °F 55.9 °F 90% 30.11 in 10.0 mi ESE 12.7 mph - N/A   Overcast
10:56 PM 59.0 °F 57.0 °F 93% 30.12 in 10.0 mi ESE 12.7 mph - N/A   Overcast
11:56 PM 57.9 °F 57.9 °F 100% 30.12 in 10.0 mi ESE 10.4 mph - 0.00 in Rain Light Rain